Regional Weather Roundup
Issued by NWS

Home | Current Version | Previous Version | Graphics & Text | Print | Product List | Glossary On
Versions: 1 2 3 4 5 6 7 8 9 10 11 12 13 14 15 16 17 18 19 20 21 22 23 24 25 26 27 28 29 30 31 32 33 34 35 36 37 38 39 40 41 42 43 44 45 46 47 48 49 50
000
ASUS43 KMPX 270910
RWRMN
WEATHER ROUNDUP FOR MINNESOTA
NATIONAL WEATHER SERVICE TWIN CITIES/CHANHASSEN MN
300 AM CST TUE JAN 27 2015


NOTE: "FAIR" INDICATES FEW OR NO CLOUDS BELOW 12,000 FEET WITH NO
SIGNIFICANT WEATHER AND/OR OBSTRUCTIONS TO VISIBILITY. N/A MEANS
CURRENT SKY AND/OR WEATHER CONDITIONS ARE NOT AVAILABLE.

MNZ060>063-068>070-271000-
   Twin Cities Metro

CITY           SKY/WX    TMP DP  RH WIND       PRES   REMARKS
TWIN CITIES    CLOUDY    34  25  69 N10       30.06R WCI  26
ST PAUL        CLOUDY    34  26  72 N9        30.06R WCI  27
CRYSTAL        CLOUDY    34  25  69 N8        30.05R WCI  27
BLAINE         CLOUDY    36  28  75 N8        30.05R
LAKEVILLE      CLOUDY    34  27  75 N7        30.05R WCI  28
EDEN PRAIRIE   CLOUDY    35  26  69 N10       30.05R WCI  27
SOUTH ST PAUL  CLOUDY    35  27  71 N6        30.05R WCI  30
LAKE ELMO      CLOUDY    34  28  80 N6        30.05R WCI  29
$$
MNZ001>005-007-008-013>017-022>024-027-028-271000-
   Northwest Minnesota

CITY           SKY/WX    TMP DP  RH WIND       PRES   REMARKS
BEMIDJI        CLOUDY    24  24  99 CALM      30.03R
HALLOCK        FOG       25  23  93 S6        30.03F VSB 1/2 WCI  18
ROSEAU         HAZE      23  18  80 S3        30.04R VSB 1/4
WARROAD        FOG       21  18  86 CALM      30.04S VSB 1/2
THIEF RVR FALL CLOUDY    25  25 100 MISG      30.05R VSB 3/4
CROOKSTON      FOG       27  25  93 CALM      30.06S VSB 3/4
FOSSTON        CLOUDY    25  23  93 CALM      30.04S
DETROIT LAKES  FOG       27  27 100 CALM      30.04S VSB 3/4
MOORHEAD       CLOUDY    27  27 100 CALM      30.07R FOG
PARK RAPIDS    CLOUDY    27  25  92 W3        30.03R
MAHNOMEN       CLOUDY    26  25  97 CALM      30.03F
$$
MNZ006-009>011-018-025>026-271000-
   North Central Minnesota

CITY           SKY/WX    TMP DP  RH WIND       PRES   REMARKS
BAUDETTE       CLOUDY    24  20  84 CALM      30.03R
FLAG ISLAND    CLOUDY    21  19  93 S5        30.03S WCI  15
INTL FALLS     CLOUDY    24  20  84 W3        30.04R
WASKISH        CLOUDY    27  25  93 CALM      30.04S
BIG FORK       CLOUDY    27  23  86 NW3       30.04R
LONGVILLE      CLOUDY    28  25  86 CALM      30.03S
GRAND RAPIDS   CLOUDY    27  21  80 NW7       30.03R WCI  19
CRANE LAKE     CLOUDY    23  21  93 CALM      30.06R
ORR            CLOUDY    23  19  86 CALM      30.02R
COOK           CLOUDY    25  21  86 NW3       30.04R
WALKER         CLOUDY    27  24  89 CALM      30.03S
$$
MNZ012-019>021-037-271000-
   Northeast Minnesota

CITY           SKY/WX    TMP DP  RH WIND       PRES   REMARKS
DULUTH         CLOUDY    26  21  81 N3        30.02R
ELY            CLOUDY    21  19  93 CALM      30.03R
HIBBING        CLOUDY    27  21  78 NW3       30.03R
EVELETH        CLOUDY    27  23  86 CALM      30.04R
DULUTH HARBOR  CLOUDY    30  27  86 N7        30.08R WCI  23
TWO HARBORS    CLOUDY    28  23  80 CALM      30.02S
SILVER BAY     CLOUDY    27  21  80 CALM      30.03R
GRAND MARAIS     N/A     23  18  81 N6        30.07R WCI  16
G MARAIS ARPRT CLOUDY    16  12  86 N3        30.00R
$$
MNZ029>031-032-039>041-046>048-054>057-064-271000-
   West Central Minnesota

CITY           SKY/WX    TMP DP  RH WIND       PRES   REMARKS
FERGUS FALLS   CLOUDY    27  27 100 CALM      30.09R
WHEATON        CLEAR     25  23  93 CALM      30.07F
MORRIS         CLOUDY    28  28 100 CALM      30.05R FOG
ALEXANDRIA     CLOUDY    28  25  88 E6        30.04R WCI  22
ELBOW LAKE     CLOUDY    27  26  99 CALM      30.05R
WADENA         CLOUDY    27  25  93 CALM      30.04S
GLENWOOD       CLOUDY    28  27  93 N5        30.04S WCI  23
APPLETON         N/A     30  28  93 NE5       30.07R WCI  25
BENSON         CLOUDY    30  27  86 NW3       30.06R
ORTONVILLE     CLEAR     27  25  93 CALM      30.06S FOG
MADISON        FOG       32  30  93 CALM      30.07R VSB 1/4
WILLMAR        CLOUDY    32  28  86 N3        30.07R
$$
MNZ033>034-036-042>043-049>051-058-059-271000-
   Central Minnesota

CITY           SKY/WX    TMP DP  RH WIND       PRES   REMARKS
ST CLOUD       CLOUDY    32  26  78 N7        30.05R WCI  26
SAUK CENTRE    CLOUDY    30  27  90 N6        30.05R WCI  24
PAYNESVILLE    CLOUDY    29  27  91 N3        30.06R
AITKIN         CLOUDY    30  25  80 NW3       30.03S
PINE RIVER     CLOUDY    28  25  86 CALM      30.07S
BRAINERD       CLOUDY    30  25  81 CALM      30.04R
STAPLES        CLOUDY    28  25  86 CALM      30.04S
LONG PRAIRIE   CLOUDY    28  27  93 N5        30.05R WCI  23
LITTLE FALLS   CLOUDY    32  27  80 CALM      30.05S
LITCHFIELD     CLOUDY    34  30  86 N6        30.06R WCI  29
BUFFALO        CLOUDY    33  28  82 CALM      30.07R
MAPLE LAKE     CLOUDY    33  29  85 NW6       30.07R WCI  28
$$
MNZ037-044-045-052-053-271000-
   East Central Minnesota

CITY           SKY/WX    TMP DP  RH WIND       PRES   REMARKS
PRINCETON      CLOUDY    34  27  75 CALM      30.06R
MORA           CLOUDY    32  25  74 CALM      30.06R
CAMBRIDGE      CLOUDY    34  25  69 NW3       30.04R
RUSH CITY      CLOUDY    31  26  80 NE6       30.06R WCI  25
MOOSE LAKE     CLOUDY    30  23  74 CALM      30.03R
HINCKLEY       CLOUDY    32  27  80 NE5       30.05R WCI  27
CLOQUET        CLOUDY    27  21  80 N3        30.03S
MCGREGOR       CLOUDY    30  27  86 N3        30.04S
$$
MNZ071>073-080-081-089-090-097-098-271000-
   Southwest Minnesota

CITY           SKY/WX    TMP DP  RH WIND       PRES   REMARKS
MONTEVIDEO     CLOUDY    28  28 100 CALM      30.08R
GRANITE FALLS  CLOUDY    30  29  96 N3        30.09R
CANBY          CLOUDY    32  31  97 CALM      30.07R FOG
MARSHALL       CLOUDY    28  27  93 N7        30.08S VSB 1   WCI  21
REDWOOD FALLS  CLOUDY    31  28  89 CALM      30.06R
OLIVIA         CLOUDY    30  28  93 NW3       30.05S
PIPESTONE      CLEAR     30  28  93 CALM      30.04S FOG
WINDOM         CLOUDY    30  30 100 N5        30.05S WCI  25
WORTHINGTON    CLOUDY    32  28  86 NW8       30.07R WCI  25
JACKSON        MOCLDY    32  30  93 N5        30.05R WCI  27
TRACY          CLEAR     31  31  98 W3        30.06R FOG
SLAYTON        CLOUDY    31  31  99 CALM      30.06R FOG
$$
MNZ065>067-074>077-082>085-091>093-271000-
   South Central Minnesota

CITY           SKY/WX    TMP DP  RH WIND       PRES   REMARKS
MANKATO        CLOUDY    32  27  80 NW5       30.05R WCI  27
NEW ULM        CLOUDY    32  27  80 N3        30.06R
ST JAMES       CLEAR     30  28  93 W6        30.07R WCI  24
FAIRMONT       CLEAR     30  25  80 NW7       30.05R WCI  23
GLENCOE        CLOUDY    34  30  85 N6        30.06R WCI  29
FARIBAULT      CLOUDY    34  30  86 NW6       30.05R WCI  29
OWATONNA       CLOUDY    34  30  86 NW8       30.04R WCI  27
WASECA         CLOUDY    32  30  93 N3        30.06R
ALBERT LEA     CLOUDY    34  30  86 N6        30.03R WCI  29
$$
MNZ078>079-086>088-094>096-271000-
   Southeast Minnesota

CITY           SKY/WX    TMP DP  RH WIND       PRES   REMARKS
ROCHESTER      CLOUDY    34  29  82 NW10      30.01R WCI  26
RED WING       CLOUDY    36  27  69 NE6       30.04R
STANTON        CLOUDY    35  29  78 N6        30.03R WCI  30
DODGE CENTER   CLOUDY    34  30  86 N10       30.02R WCI  26
WINONA         CLOUDY    34  30  86 CALM      30.05R
AUSTIN         CLOUDY    34  30  86 NW7       30.02R WCI  28
PRESTON        CLOUDY    32  30  91 N7        30.01R WCI  26
$$
ABBREVIATIONS USED IN REMARKS
   TC - TEMPERATURES IN CELSIUS
  WCI - WIND CHILL INDEX
   HX - HEAT INDEX
  VSB - VISIBILITY
$$



USA.gov is the U.S. government's official web portal to all federal, state and local government web resources and services.